Location: Karcze
(52.0945°N, 22.4786°E)
Time: 00:09:57
(UTC+00:00)

A-11 Canister half - Pass Details

Date: 03 August 2021
Orbit: 1514 x 1685 km, 47.2° (Epoch: 16 September)

Event Time Altitude Azimuth Distance (km) Brightness Sun altitude
Rises 20:14:53 0° 283° (WNW) 4,886 12.4 -14.1°
Reaches altitude 10° 20:18:10 10° 278° (W) 3,915 11.7 -14.4°
Maximum altitude 20:27:29 45° 211° (SSW) 2,174 9.6 -15.2°
Enters shadow 20:34:09 20° 151° (SSE) 3,194 10.0 -15.7°
Drops below altitude 10° 20:36:54 10° 143° (SE) 3,942 - -15.9°
Sets 20:40:13 0° 137° (SE) 4,921 - -16.2°
